When you browse on this site, cookies collect data to enhance your experience and personalize the content and advertising you see.
Visit our Privacy Policy to learn more. By continuing to use the site, you agree to this use of cookies and data.
  • In Czech Republic
  • List of Countries
  • For 7 days
  • Water Temperature
  • Weather Map
  • Weather Widgets
  • user-avatar
    Login

    Hourly Weather Vasteras

    Today, 15 September, Sunday

    Time Temperature Precipitation Wind Pressure Humidity
    00:00 +11°C° 1.1 mm 6 mps 754 mmHg 85%
    01:00 +10°C° 0 mm 7 mps 753 mmHg 91%
    02:00 +10°C° 1 mm 7 mps 751 mmHg 91%
    03:00 +11°C° 1 mm 7 mps 750 mmHg 91%
    04:00 +11°C° 1 mm 7 mps 748 mmHg 91%
    05:00 +11°C° 0.5 mm 7 mps 747 mmHg 90%
    06:00 +13°C° 0.5 mm 6 mps 746 mmHg 89%
    07:00 +13°C° 0.5 mm 6 mps 746 mmHg 89%
    08:00 +12°C° 0.1 mm 7 mps 745 mmHg 80%
    09:00 +14°C° 0.1 mm 7 mps 745 mmHg 71%
    10:00 +13°C° 0.1 mm 8 mps 745 mmHg 62%
    11:00 +13°C° 0 mm 8 mps 745 mmHg 57%
    12:00 +15°C° 0 mm 8 mps 745 mmHg 52%
    13:00 +15°C° 0 mm 8 mps 745 mmHg 47%
    14:00 +15°C° 0 mm 8 mps 744 mmHg 47%
    15:00 +15°C° 0 mm 7 mps 744 mmHg 48%
    16:00 +15°C° 0 mm 7 mps 743 mmHg 48%
    17:00 +14°C° 0 mm 7 mps 743 mmHg 52%
    18:00 +12°C° 0 mm 7 mps 743 mmHg 56%
    19:00 +11°C° 0 mm 6 mps 742 mmHg 61%
    20:00 +11°C° 0 mm 6 mps 743 mmHg 60%
    21:00 +11°C° 0 mm 6 mps 743 mmHg 59%
    22:00 +10°C° 0 mm 6 mps 743 mmHg 58%
    23:00 +10°C° 0 mm 6 mps 743 mmHg 60%

    Tomorrow, 16 September, Monday

    Time Temperature Precipitation Wind Pressure Humidity
    00:00 +10°C° 0 mm 5 mps 744 mmHg 62%
    01:00 +9°C° 0 mm 5 mps 745 mmHg 63%
    02:00 +9°C° 0 mm 5 mps 745 mmHg 63%
    03:00 +9°C° 0 mm 5 mps 746 mmHg 62%
    04:00 +8°C° 0 mm 5 mps 746 mmHg 61%
    05:00 +9°C° 0 mm 5 mps 746 mmHg 60%
    06:00 +9°C° 0 mm 6 mps 746 mmHg 59%
    07:00 +9°C° 0 mm 6 mps 747 mmHg 58%
    08:00 +10°C° 0 mm 6 mps 747 mmHg 56%
    09:00 +11°C° 0 mm 6 mps 748 mmHg 53%
    10:00 +12°C° 0 mm 7 mps 748 mmHg 51%
    11:00 +13°C° 0 mm 6 mps 748 mmHg 52%
    12:00 +13°C° 0 mm 6 mps 749 mmHg 53%
    13:00 +13°C° 0 mm 6 mps 749 mmHg 54%
    14:00 +12°C° 0 mm 5 mps 749 mmHg 55%
    15:00 +12°C° 0 mm 5 mps 749 mmHg 56%
    16:00 +12°C° 0 mm 4 mps 749 mmHg 56%
    17:00 +11°C° 0 mm 4 mps 749 mmHg 61%
    18:00 +10°C° 0 mm 3 mps 749 mmHg 65%
    19:00 +9°C° 0 mm 2 mps 749 mmHg 70%
    20:00 +8°C° 0 mm 2 mps 749 mmHg 71%
    21:00 +7°C° 0 mm 2 mps 748 mmHg 73%
    22:00 +7°C° 0 mm 2 mps 748 mmHg 75%
    23:00 +6°C° 0 mm 2 mps 748 mmHg 76%

    Day after tomorrow, 17 September, Tuesday

    Time Temperature Precipitation Wind Pressure Humidity
    00:00 +6°C° 0 mm 2 mps 748 mmHg 77%
    01:00 +5°C° 0 mm 3 mps 748 mmHg 78%
    02:00 +4°C° 0 mm 3 mps 747 mmHg 80%
    03:00 +4°C° 0 mm 3 mps 747 mmHg 81%
    04:00 +4°C° 0 mm 3 mps 747 mmHg 83%
    05:00 +4°C° 0.3 mm 3 mps 747 mmHg 83%
    06:00 +5°C° 0.3 mm 3 mps 747 mmHg 83%
    07:00 +5°C° 0.3 mm 3 mps 747 mmHg 84%
    08:00 +7°C° 0.7 mm 3 mps 747 mmHg 83%
    09:00 +7°C° 0.7 mm 3 mps 747 mmHg 83%
    10:00 +8°C° 0.7 mm 3 mps 747 mmHg 82%
    11:00 +9°C° 0.5 mm 3 mps 748 mmHg 78%
    12:00 +10°C° 0.5 mm 4 mps 748 mmHg 73%
    13:00 +10°C° 0.5 mm 4 mps 748 mmHg 69%
    14:00 +11°C° 0.1 mm 3 mps 748 mmHg 67%
    15:00 +11°C° 0.1 mm 3 mps 749 mmHg 66%
    16:00 +11°C° 0.1 mm 3 mps 749 mmHg 65%
    17:00 +10°C° 0 mm 3 mps 749 mmHg 70%
    18:00 +9°C° 0 mm 3 mps 750 mmHg 75%
    19:00 +8°C° 0 mm 3 mps 750 mmHg 81%
    20:00 +6°C° 0 mm 4 mps 751 mmHg 81%
    21:00 +6°C° 0 mm 4 mps 751 mmHg 80%
    22:00 +6°C° 0 mm 5 mps 752 mmHg 80%
    23:00 +6°C° 0 mm 5 mps 752 mmHg 81%

    18 September, Wednesday

    Time Temperature Precipitation Wind Pressure Humidity
    00:00 +6°C° 0 mm 5 mps 753 mmHg 82%
    01:00 +5°C° 0 mm 4 mps 753 mmHg 83%
    02:00 +5°C° 0 mm 4 mps 754 mmHg 81%
    03:00 +4°C° 0 mm 4 mps 754 mmHg 80%
    04:00 +4°C° 0 mm 4 mps 755 mmHg 78%
    05:00 +4°C° 0 mm 4 mps 755 mmHg 76%
    06:00 +5°C° 0 mm 4 mps 755 mmHg 75%
    07:00 +5°C° 0 mm 4 mps 756 mmHg 73%
    08:00 +6°C° 0 mm 4 mps 756 mmHg 66%
    09:00 +8°C° 0 mm 4 mps 756 mmHg 60%
    10:00 +11°C° 0 mm 4 mps 757 mmHg 53%
    11:00 +11°C° 0 mm 4 mps 757 mmHg 50%
    12:00 +12°C° 0 mm 4 mps 757 mmHg 47%
    13:00 +13°C° 0 mm 4 mps 758 mmHg 44%
    14:00 +13°C° 0 mm 4 mps 758 mmHg 44%
    15:00 +13°C° 0 mm 4 mps 758 mmHg 43%
    16:00 +12°C° 0 mm 4 mps 758 mmHg 43%
    17:00 +11°C° 0 mm 3 mps 758 mmHg 49%
    18:00 +10°C° 0 mm 3 mps 759 mmHg 55%
    19:00 +8°C° 0 mm 3 mps 759 mmHg 61%
    20:00 +8°C° 0 mm 3 mps 760 mmHg 61%
    21:00 +6°C° 0 mm 4 mps 760 mmHg 61%
    22:00 +6°C° 0 mm 4 mps 760 mmHg 62%
    23:00 +5°C° 0 mm 4 mps 761 mmHg 63%

    19 September, Thursday

    Time Temperature Precipitation Wind Pressure Humidity
    00:00 +5°C° 0 mm 4 mps 761 mmHg 64%
    01:00 +4°C° 0 mm 4 mps 761 mmHg 65%
    02:00 +4°C° 0 mm 4 mps 761 mmHg 66%
    03:00 +4°C° 0 mm 4 mps 762 mmHg 67%
    04:00 +3°C° 0 mm 4 mps 762 mmHg 67%
    05:00 +3°C° 0 mm 4 mps 762 mmHg 67%
    06:00 +4°C° 0 mm 4 mps 763 mmHg 66%
    07:00 +3°C° 0 mm 5 mps 763 mmHg 66%
    08:00 +5°C° 0 mm 4 mps 763 mmHg 60%
    09:00 +7°C° 0 mm 4 mps 764 mmHg 55%
    10:00 +8°C° 0 mm 4 mps 765 mmHg 49%
    11:00 +10°C° 0 mm 4 mps 765 mmHg 46%
    12:00 +11°C° 0 mm 4 mps 765 mmHg 42%
    13:00 +11°C° 0 mm 4 mps 765 mmHg 38%
    14:00 +11°C° 0 mm 4 mps 765 mmHg 39%
    15:00 +11°C° 0 mm 4 mps 765 mmHg 40%
    16:00 +11°C° 0 mm 3 mps 765 mmHg 42%
    17:00 +10°C° 0 mm 3 mps 765 mmHg 47%
    18:00 +8°C° 0 mm 3 mps 765 mmHg 53%
    19:00 +7°C° 0 mm 2 mps 765 mmHg 59%
    20:00 +6°C° 0 mm 2 mps 766 mmHg 60%
    21:00 +6°C° 0 mm 2 mps 766 mmHg 62%
    22:00 +5°C° 0 mm 2 mps 766 mmHg 63%
    23:00 +5°C° 0 mm 2 mps 766 mmHg 64%

    20 September, Friday

    Time Temperature Precipitation Wind Pressure Humidity
    00:00 +5°C° 0 mm 2 mps 766 mmHg 65%
    01:00 +5°C° 0 mm 2 mps 766 mmHg 66%
    02:00 +5°C° 0 mm 2 mps 765 mmHg 67%
    03:00 +6°C° 0 mm 1 mps 765 mmHg 67%
    04:00 +6°C° 0 mm 1 mps 765 mmHg 67%
    05:00 +5°C° 0 mm 2 mps 764 mmHg 66%
    06:00 +6°C° 0 mm 2 mps 764 mmHg 66%
    07:00 +6°C° 0 mm 2 mps 764 mmHg 65%
    08:00 +7°C° 0 mm 2 mps 763 mmHg 65%
    09:00 +9°C° 0 mm 3 mps 763 mmHg 66%
    10:00 +10°C° 0 mm 3 mps 763 mmHg 66%
    11:00 +11°C° 0 mm 4 mps 762 mmHg 65%
    12:00 +11°C° 0 mm 4 mps 761 mmHg 63%
    13:00 +12°C° 0 mm 4 mps 761 mmHg 62%
    14:00 +13°C° 0 mm 4 mps 760 mmHg 63%
    15:00 +13°C° 0 mm 4 mps 759 mmHg 65%
    16:00 +14°C° 0 mm 3 mps 759 mmHg 66%
    17:00 +13°C° 0.1 mm 3 mps 759 mmHg 72%
    18:00 +13°C° 0.1 mm 2 mps 758 mmHg 78%
    19:00 +12°C° 0.1 mm 2 mps 758 mmHg 84%
    20:00 +12°C° 0.1 mm 2 mps 758 mmHg 86%
    21:00 +12°C° 0.1 mm 2 mps 758 mmHg 87%
    22:00 +11°C° 0.1 mm 3 mps 758 mmHg 88%
    23:00 +11°C° 0 mm 3 mps 757 mmHg 87%
    Show more